Location: *
(60.1759°S, 155.0663°W)
Time: 05:31:41
(UTC+00:00)

Cosmos 2322 Rocket - Pass Details

Date: 17 September 2019
Orbit: 834 x 849 km, 71.0° (Epoch: 18 October)

Event Time Altitude Azimuth Distance (km) Brightness Sun altitude
Rises 12:23:48 0° 238° (WSW) 3,447 5.3 -27.0°
Reaches altitude 10° 12:26:34 10° 227° (SW) 2,512 4.7 -26.8°
Maximum altitude 12:31:41 31° 165° (SSE) 1,471 3.9 -26.4°
Drops below altitude 10° 12:36:48 10° 103° (ESE) 2,510 5.3 -26.0°
Sets 12:39:33 0° 92° (E) 3,443 6.0 -25.8°
